User: anonymous   Login
Location: Unspecified
(0.0000°N, 0.0000°E)
Time: 23:13:52
(UTC+01:00)
Language:

Cosmos 2251 - Orbit

View from above orbital plane
View from above orbital plane
View from above satellite
View from above satellite

Ground track
Ground track

The orbit data is extracted from the following two-line orbital elements,

1 22675U 93036A   15027.24066934  .00000080  00000-0  39268-4 0  4593
2 22675 074.0411 007.3130 0025791 336.0550 122.9416 14.32390261129188
Epoch (UTC): 27 January 2015 05:46:33
Eccentricity: 0.0025791
inclination: 74.0411°
perigee height: 765 km
apogee height: 802 km
right ascension of ascending node: 7.3130°
argument of perigee: 336.0550°
revolutions per day: 14.32390261
mean anomaly at epoch: 122.9416°
orbit number at epoch: 12918

The dashed part of the orbit path shows where the satellite is in the earth's shadow,  

DLR